This is the latest recevied weather packets stored in our database for station/object IZ1UKX-13. If no packets are shown the sender has not sent any weather packets the latest 10 day(s).
| Time | Temp. | Humidity | Pressure | Rain* | Wind** | Luminosity | Snow |
|---|---|---|---|---|---|---|---|
| 1787392299 | 30.56° C | 46% | 1021 hPa | 0 mm | - | 0 W/m² | - |
| 1787391999 | 30.56° C | 46% | 1021 hPa | 0 mm | - | 0 W/m² | - |
| 1787391699 | 30.56° C | 48% | 1021 hPa | 0 mm | - | 0 W/m² | - |
| 1787391399 | 30° C | 49% | 1021 hPa | 0 mm | - | 0 W/m² | - |
| 1787391099 | 30.56° C | 48% | 1021 hPa | 0 mm | - | 0 W/m² | - |
| 1787390800 | 30.56° C | 48% | 1021 hPa | 0 mm | - | 0 W/m² | - |
| 1787390499 | 29.44° C | 51% | 1021 hPa | 0 mm | - | 0 W/m² | - |
| 1787390199 | 29.44° C | 49% | 1021 hPa | 0 mm | - | 0 W/m² | - |
| 1787389899 | 30° C | 49% | 1021 hPa | 0 mm | - | 0 W/m² | - |
| 1787389600 | 30° C | 50% | 1021 hPa | 0 mm | - | 0 W/m² | - |
| 1787389575 | 30° C | 50% | 1021.4 hPa | 0 mm | - | 0 W/m² | - |
| 1787389548 | 30° C | 49% | 1021 hPa | 0 mm | - | 0 W/m² | - |
| 1787389247 | 29.44° C | 51% | 1021.4 hPa | 0 mm | - | 0 W/m² | - |
| 1787388947 | 28.89° C | 54% | 1021.4 hPa | 0 mm | - | 0 W/m² | - |
| 1787388647 | 28.33° C | 53% | 1021.4 hPa | 0 mm | - | 0 W/m² | - |
| 1787388347 | 27.78° C | 54% | 1021.4 hPa | 0 mm | - | 0 W/m² | - |
| 1787388047 | 27.78° C | 54% | 1021.4 hPa | 0 mm | - | 0 W/m² | - |
| 1787387747 | 27.78° C | 53% | 1021.4 hPa | 0 mm | - | 0 W/m² | - |
| 1787387447 | 28.33° C | 52% | 1021.4 hPa | 0 mm | - | 0 W/m² | - |
| 1787387147 | 27.78° C | 54% | 1021.4 hPa | 0 mm | - | 0 W/m² | - |
| 1787386847 | 27.22° C | 53% | 1021.4 hPa | 0 mm | - | 0 W/m² | - |
| 1787386547 | 26.67° C | 55% | 1021.4 hPa | 0 mm | - | 0 W/m² | - |
| 1787386247 | 27.22° C | 54% | 1021.4 hPa | 0 mm | - | 0 W/m² | - |
| 1787385947 | 26.67° C | 55% | 1021.8 hPa | 0 mm | - | 0 W/m² | - |
| 1787385647 | 26.11° C | 58% | 1021.8 hPa | 0 mm | - | 0 W/m² | - |
* Rain latest hour (hover to see other rain measurements)
** Current wind speed in m/s (hover to see current wind gust speed)